Theta_e
361 357 358 353 351 351 356 355 354 354 352 350 351 350 343 338 332 329 330 333 332 336 337 335 346 351 346 345 342 339 349 352 349 342 347 348 351 351 356 360 362 365 369 371 372 372 372 372 372 373 374 375 374 374 373 373 372 372 371 371 371 371 370 369 367 363 361 361 362 363 364 364 364 363
362 358 356 354 354 352 354 352 355 355 352 352 351 346 343 344 338 334 331 333 339 338 341 341 342 349 345 342 340 339 340 353 348 344 342 346 354 352 356 360 360 360 362 363 366 367 368 368 370 371 371 373 374 375 374 374 373 372 372 372 372 372 371 369 364 361 360 360 360 361 362 362 362 362
360 358 357 357 354 353 355 354 354 353 351 348 356 348 345 343 341 338 342 334 338 340 338 342 344 349 345 343 342 341 341 347 347 344 353 355 350 350 356 360 360 359 358 358 359 363 365 367 369 371 369 371 368 371 373 374 374 373 372 372 372 372 371 366 362 360 359 359 359 360 361 361 362 361
358 355 353 354 355 354 352 350 356 356 353 351 349 348 346 345 345 347 339 333 332 338 338 340 344 346 345 346 344 343 344 344 352 346 348 349 351 347 347 355 358 358 356 354 353 355 360 366 371 368 369 369 369 369 368 370 372 373 373 372 372 371 366 362 360 359 359 359 359 360 360 361 360 359
355 355 355 353 354 352 346 343 347 350 349 349 350 349 348 347 346 344 342 335 334 340 345 344 344 347 348 345 345 342 342 342 346 352 362 363 358 353 349 352 350 352 353 352 351 350 352 357 363 369 368 369 369 369 369 368 368 371 371 370 369 365 361 360 359 359 359 359 359 360 360 360 359 358
355 357 358 357 356 351 344 343 346 347 348 348 349 350 348 345 344 344 342 338 335 335 341 343 346 344 347 343 345 342 342 343 347 348 348 350 352 353 356 352 351 348 350 350 349 349 349 350 355 360 364 366 368 369 369 368 367 367 365 363 361 358 357 357 357 358 358 358 359 359 358 358 357 356
358 357 356 354 355 354 348 349 348 348 347 347 347 349 349 348 345 344 344 342 339 338 338 342 342 343 346 345 343 344 343 344 346 346 353 353 356 356 353 349 347 344 344 347 348 348 347 347 349 353 355 358 361 363 362 360 359 356 354 353 352 351 352 353 352 355 357 357 357 357 356 356 355 355
349 345 345 348 352 352 351 349 348 350 351 349 348 347 348 347 346 346 346 348 343 340 338 341 341 344 345 346 347 348 349 347 346 345 345 347 348 348 349 346 347 346 346 346 347 347 346 346 346 346 347 349 353 353 350 348 348 346 345 345 346 348 349 348 347 348 351 354 355 355 355 354 354 353
347 346 348 350 350 349 346 348 349 349 350 349 347 346 347 347 347 347 347 350 345 341 337 338 342 345 346 349 351 350 346 345 345 345 345 349 350 350 349 348 348 346 346 346 346 346 346 346 345 344 344 343 344 344 343 343 342 341 341 341 341 342 343 343 343 344 345 346 347 348 348 349 348 349
349 350 348 349 349 344 345 345 345 345 344 346 346 346 347 348 350 350 346 350 348 344 341 342 341 343 344 342 346 348 347 344 341 343 348 350 352 351 346 345 347 349 345 349 352 345 345 344 344 345 344 342 341 341 341 340 340 339 338 337 337 338 339 339 339 339 339 340 341 342 343 344 345 346
341 342 342 347 349 347 346 344 344 344 345 342 339 340 343 343 342 341 341 342 343 341 338 339 340 339 343 342 343 347 349 348 348 345 345 343 347 349 347 348 347 348 348 346 346 348 352 351 350 343 340 340 340 339 339 339 340 341 338 334 334 335 336 337 336 336 335 335 336 336 337 339 342 343
338 338 339 339 340 340 341 343 346 350 345 344 343 342 342 337 337 336 336 340 338 335 337 335 333 337 334 336 344 348 348 346 346 346 343 340 343 345 350 351 348 349 348 348 347 346 345 349 350 346 344 342 342 342 340 340 342 343 341 337 334 334 334 334 334 334 334 333 333 332 331 331 333 338
338 338 338 338 339 343 344 346 346 345 344 343 343 341 340 338 336 338 339 340 338 335 336 334 335 334 332 335 338 342 342 337 337 343 344 341 343 344 344 349 353 352 350 351 350 348 349 349 355 354 353 352 346 345 344 346 346 345 344 340 336 335 334 333 332 332 332 331 331 331 330 328 327 328
338 337 336 338 342 342 343 344 344 343 344 345 344 343 342 341 341 339 337 338 339 339 337 336 336 331 332 335 335 338 341 340 345 345 346 343 347 347 346 346 350 351 350 349 350 355 356 351 350 352 351 352 356 352 350 348 348 344 339 337 336 335 334 333 333 332 331 330 329 329 329 328 327 326
334 335 336 336 338 339 340 340 341 341 341 341 342 342 341 340 340 337 336 335 337 337 336 337 336 334 334 334 339 343 345 343 341 341 343 343 344 343 339 336 344 358 355 351 346 345 350 350 347 350 350 348 346 350 352 345 342 340 338 336 335 334 334 333 333 332 331 330 329 328 327 326 327 326
331 332 333 335 336 336 337 338 340 339 339 339 340 341 342 342 342 343 341 339 336 336 334 334 334 333 334 337 345 344 343 342 343 341 340 342 341 338 338 340 338 352 352 348 342 341 347 350 350 348 348 349 349 347 341 338 339 339 338 336 335 334 334 333 333 332 331 330 329 328 327 326 326 325
330 331 332 331 333 333 336 336 336 337 337 338 339 340 342 342 342 340 340 343 343 341 338 336 335 336 337 337 340 343 342 345 340 341 339 342 342 341 340 340 341 348 352 347 341 339 344 347 344 343 348 348 346 345 340 337 337 338 337 337 335 334 333 333 333 332 331 330 328 327 326 325 325 324
327 328 328 329 330 332 333 334 335 336 335 337 337 337 337 339 340 340 341 342 343 342 338 336 336 340 342 340 343 343 342 340 342 342 340 341 340 340 340 343 345 349 352 346 344 340 342 345 343 342 345 345 345 345 339 333 333 335 336 335 334 333 333 332 332 331 330 329 328 326 325 324 323 322
326 326 327 327 328 330 330 331 333 333 332 333 333 334 335 336 338 338 339 339 342 341 340 341 339 341 343 341 339 339 342 340 341 344 344 343 342 342 342 342 344 345 350 349 343 335 339 345 341 341 342 343 344 344 336 333 330 330 331 332 332 332 332 331 330 330 330 329 328 326 324 322 321 320
325 326 327 328 328 328 329 330 330 330 330 330 329 330 333 335 337 336 340 338 339 341 342 340 339 338 342 342 344 343 343 346 347 347 346 344 342 340 337 335 340 340 347 352 343 336 338 346 341 340 344 346 343 343 343 339 331 329 329 330 330 330 329 329 329 328 328 327 327 325 323 321 320 319
325 325 326 327 327 328 328 327 326 328 331 329 328 328 329 331 334 333 335 337 335 334 333 332 333 334 333 334 333 332 335 342 345 344 338 337 339 334 332 334 336 336 342 346 347 342 335 339 341 339 343 347 342 342 342 344 336 331 330 328 327 327 326 326 326 326 326 325 324 324 322 320 319 319
323 324 327 328 327 327 326 324 324 326 328 327 327 326 325 326 329 333 334 335 336 338 337 336 336 336 335 336 338 337 335 334 340 340 334 336 338 334 333 330 333 336 338 341 347 339 338 339 338 333 336 342 349 347 346 347 344 330 328 327 329 329 328 328 326 326 325 324 323 323 322 321 321 327
322 323 324 327 327 326 324 320 322 323 326 325 326 325 324 324 327 327 328 333 335 338 337 337 339 341 340 341 340 341 341 340 339 339 337 339 336 332 332 333 331 331 333 336 343 335 334 333 335 336 332 333 339 348 349 348 351 351 351 347 343 328 329 329 328 326 325 325 324 323 321 320 319 332
320 321 323 325 326 321 321 319 318 318 321 323 324 325 323 324 323 324 327 333 335 335 338 337 339 338 337 340 340 339 339 338 339 337 339 337 333 333 333 333 332 329 331 337 339 334 336 336 335 339 337 331 330 338 340 344 348 348 345 347 344 338 336 336 334 328 328 327 323 320 318 319 319 333
320 322 323 323 324 318 319 317 315 315 318 322 323 325 323 321 321 325 326 329 335 334 336 337 338 340 339 339 340 340 339 338 338 340 340 341 338 336 333 332 331 332 336 337 337 335 332 335 334 337 336 337 335 334 338 340 344 341 340 340 341 343 345 345 341 344 330 328 323 317 319 318 315 323
323 323 323 322 323 317 316 316 313 313 316 319 325 320 315 318 320 324 327 330 333 335 333 335 334 333 335 333 335 335 336 337 339 340 340 339 339 339 338 334 332 330 332 339 337 337 334 333 335 333 334 333 333 335 333 336 340 339 340 339 339 340 342 342 344 342 343 343 343 327 331 320 321 318
324 324 323 324 324 316 310 309 311 313 315 323 320 313 316 318 321 326 326 330 332 334 333 332 330 330 331 331 331 332 333 334 337 338 341 340 340 338 338 339 338 336 336 338 340 339 337 334 336 334 332 333 331 332 332 330 332 338 338 339 339 340 340 340 338 337 338 339 339 328 323 322 323 324
325 324 324 323 314 310 306 308 311 314 321 321 312 312 317 323 326 326 326 329 331 330 327 326 326 325 327 327 328 328 330 332 332 333 337 340 341 337 334 332 331 331 330 329 332 334 336 334 334 335 334 332 330 328 327 333 333 330 329 335 336 335 333 333 333 333 333 335 335 333 331 329 328 330
326 321 315 314 315 316 312 314 316 319 325 319 318 319 323 331 330 331 330 328 327 325 324 323 323 324 325 325 326 328 329 329 329 330 333 335 339 335 328 326 326 325 326 326 326 327 329 330 329 330 332 334 331 330 329 328 329 325 326 327 327 330 326 329 329 328 328 330 329 328 327 325 324 326
323 321 319 320 321 324 325 328 328 328 329 328 329 329 330 328 328 327 327 326 324 323 323 323 323 324 325 326 327 328 328 326 325 327 328 330 330 331 325 322 321 322 323 323 323 323 324 324 324 326 329 329 327 325 325 326 324 323 323 322 322 330 323 324 324 325 324 325 324 324 324 325 323 323
324 328 328 325 323 323 326 328 329 328 328 328 327 328 329 328 327 327 327 326 325 325 324 325 326 328 327 329 328 326 325 324 325 326 327 326 326 325 323 321 319 319 321 323 323 323 323 322 323 323 321 322 323 322 322 322 320 319 320 321 320 316 319 322 323 323 324 325 323 322 322 321 321 323
324 327 329 329 329 328 327 327 326 326 326 327 327 328 329 330 330 329 330 330 330 329 328 328 329 329 329 327 326 326 325 324 325 326 325 324 323 325 324 320 319 321 320 322 322 324 324 322 321 320 320 320 319 321 321 319 318 318 319 320 320 320 321 320 320 322 324 325 321 320 319 318 318 319
326 329 329 330 328 327 326 326 325 327 328 328 329 330 331 331 330 330 330 328 329 330 330 328 329 329 329 327 328 327 325 325 325 326 324 324 324 324 322 320 320 320 319 320 322 323 324 324 323 320 318 318 319 320 319 316 317 319 318 318 318 317 319 320 320 321 323 322 320 319 318 317 317 317
332 326 324 324 322 324 324 321 322 323 325 324 323 323 325 325 325 329 331 330 330 331 334 333 331 331 330 329 328 327 325 325 325 325 325 324 324 322 321 320 321 322 322 321 322 323 325 325 325 323 321 319 319 318 319 318 317 318 318 319 318 318 319 320 320 320 321 319 319 316 315 314 315 315
325 322 320 320 321 321 321 321 321 322 322 322 321 321 322 323 324 323 324 326 328 329 328 327 324 321 324 328 330 327 325 324 325 326 327 326 323 321 321 320 320 321 321 321 322 323 324 323 324 322 322 321 319 318 316 319 318 318 318 318 318 318 318 320 319 318 319 318 318 315 313 313 313 314
323 322 322 321 321 321 320 320 322 322 322 322 323 322 321 322 323 324 325 326 324 323 325 325 326 326 323 320 320 319 320 323 323 326 325 322 321 321 321 320 320 319 320 320 323 324 324 323 322 320 318 313 310 308 312 316 317 319 317 315 318 318 319 320 320 319 317 317 318 316 312 311 312 313
321 322 322 322 322 322 321 320 319 320 322 322 322 323 323 322 324 326 327 327 327 324 323 322 323 326 326 326 322 320 321 321 320 321 322 325 325 324 321 320 320 320 319 320 321 321 322 319 319 317 314 310 307 307 310 318 317 316 319 317 317 318 319 320 319 319 319 319 318 316 314 313 313 313
319 320 320 321 322 321 322 322 322 320 320 321 322 322 322 322 324 326 328 326 324 322 322 322 320 321 322 322 323 323 320 320 320 320 319 322 323 321 320 319 321 321 320 322 322 322 323 321 319 318 316 310 308 308 309 315 317 316 312 318 319 320 320 319 317 316 318 319 317 318 317 315 314 314
319 319 319 320 320 322 321 321 321 322 322 321 320 320 321 320 321 322 322 323 327 324 321 321 321 322 320 320 319 318 320 321 319 317 318 320 321 321 323 323 322 323 323 322 324 324 324 322 322 320 320 315 312 311 313 313 312 315 317 310 316 319 320 318 317 319 318 318 319 320 319 319 317 315
319 320 319 320 320 320 321 323 321 321 321 324 323 322 322 322 321 320 321 322 323 323 322 322 323 320 321 322 319 318 318 317 317 323 320 317 318 322 322 321 323 324 322 321 320 321 322 322 323 323 322 321 321 321 321 322 320 320 319 317 309 316 319 320 317 315 316 317 319 317 317 317 316 314
319 318 319 320 320 320 320 320 321 321 320 321 323 326 325 325 323 322 321 323 326 322 319 320 322 323 320 319 320 320 319 320 318 316 317 321 320 317 319 324 323 323 320 319 321 322 324 324 329 328 328 327 326 326 320 314 314 315 317 318 312 311 312 313 320 320 317 318 317 315 315 315 317 315
319 318 319 319 319 319 319 319 320 320 321 320 320 321 324 323 322 326 325 325 323 324 322 319 320 320 321 322 318 317 318 318 319 320 318 316 315 321 321 319 318 321 322 320 320 322 325 328 326 323 325 326 326 320 316 314 315 317 318 318 316 312 311 311 311 312 319 320 316 314 313 313 315 314
320 318 317 319 320 320 320 320 320 319 321 321 321 322 320 321 322 321 320 322 325 320 320 324 322 321 320 321 324 320 317 317 317 318 318 317 315 312 313 313 312 314 318 320 326 327 327 326 325 323 323 323 323 320 314 314 320 319 320 317 316 315 317 311 311 310 310 310 311 315 316 314 311 308
320 319 319 320 319 320 320 320 320 320 319 320 320 319 318 318 319 320 320 320 320 322 320 320 323 321 321 319 318 320 324 319 317 316 317 317 317 313 310 310 312 312 313 315 317 318 318 327 324 326 323 324 321 318 317 317 314 317 319 319 319 317 313 314 314 311 310 311 311 311 311 313 314 313
323 322 322 322 321 321 320 320 320 319 318 318 317 317 316 316 317 319 320 320 320 320 322 319 319 318 318 320 317 313 318 320 318 316 315 315 316 315 312 310 310 310 310 311 311 313 316 317 323 326 323 322 319 315 321 316 316 313 316 319 316 318 316 315 310 311 314 316 313 311 311 312 312 313
Wind_Speed
4 3 4 6 5 6 6 4 3 3 3 5 7 7 7 6 5 5 8 8 8 7 7 5 3 3 4 5 6 5 3 4 6 6 6 5 6 8 11 13 15 17 16 14 14 12 12 11 11 11 12 13 15 16 17 18 18 19 19 20 21 21 23 22 19 18 18 19 19 20 20 20 19 19
2 2 3 4 5 5 6 6 4 4 5 6 7 6 7 7 9 8 8 10 8 7 6 6 5 4 6 7 7 6 6 8 9 7 6 4 0 7 9 12 12 11 10 11 11 11 11 11 10 10 10 11 12 14 14 15 17 18 19 19 19 20 22 20 19 18 18 18 19 19 20 19 19 19
5 7 8 8 8 7 7 6 4 5 4 6 6 6 6 8 9 9 7 6 6 5 7 7 7 3 6 7 7 8 9 10 9 6 3 1 4 5 7 12 12 13 14 13 13 13 13 11 11 10 10 10 11 11 12 14 15 16 17 17 18 19 19 18 18 18 18 18 19 19 19 19 19 19
5 5 7 8 8 7 4 4 6 6 7 7 7 9 8 7 7 6 5 7 11 9 10 10 8 9 9 7 5 5 7 10 12 6 6 5 7 5 4 9 13 14 15 15 14 14 15 13 12 11 11 10 10 11 11 12 13 15 16 16 17 17 17 17 17 17 18 18 19 19 19 19 19 19
5 7 8 9 10 4 6 6 9 8 10 9 9 9 8 8 6 6 6 8 11 9 9 8 7 5 4 7 7 8 7 9 7 6 3 3 3 3 4 4 9 13 15 16 16 16 16 15 14 12 11 10 10 10 10 11 12 13 14 15 16 16 16 16 16 16 17 18 19 19 19 19 19 19
6 7 9 10 10 7 10 12 12 12 11 12 11 10 10 9 10 9 7 9 10 14 9 8 7 9 8 9 7 7 8 7 6 6 7 7 5 4 3 4 5 11 14 16 17 17 16 15 14 14 13 12 12 12 11 11 11 12 13 13 14 15 15 15 16 16 17 18 18 19 19 19 19 19
6 6 6 9 8 3 7 10 10 11 12 11 11 8 8 9 10 11 11 9 11 13 13 9 7 7 7 7 7 8 9 8 7 8 5 3 3 3 3 5 5 10 11 14 16 17 16 15 15 14 14 13 13 13 12 12 11 11 12 13 13 14 14 15 15 16 16 17 17 18 19 19 19 19
6 7 9 11 10 7 7 9 9 9 9 9 8 10 9 9 10 10 6 11 11 9 8 6 7 4 5 7 9 8 5 5 5 5 6 6 5 4 5 7 8 10 15 14 14 16 16 15 14 15 15 14 14 14 13 12 12 11 12 12 12 13 13 14 14 15 16 16 17 18 18 18 19 19
9 9 9 9 8 7 9 10 8 7 8 8 7 8 8 8 8 8 9 8 7 8 8 7 5 6 6 7 6 4 6 6 7 6 7 6 5 4 5 5 6 10 15 11 11 12 13 15 16 16 15 15 15 15 14 13 13 13 12 12 12 12 13 13 14 14 15 15 16 16 17 18 18 18
8 6 8 9 7 9 11 9 9 9 10 9 7 9 9 6 5 6 4 2 2 2 4 5 6 5 8 6 8 6 6 8 8 7 5 4 4 4 5 6 5 4 5 3 5 8 11 14 17 17 16 15 15 15 14 14 14 13 13 13 13 13 13 13 13 14 14 15 15 16 16 16 17 17
9 9 9 8 7 10 11 12 12 12 12 8 12 13 9 8 9 8 8 9 7 3 4 5 5 6 7 7 10 7 8 8 7 5 4 5 4 4 5 5 4 3 4 6 7 5 7 11 11 14 16 16 17 16 15 14 14 13 13 13 13 13 13 13 13 13 14 14 14 15 15 16 16 17
9 10 10 10 10 10 8 8 7 5 6 5 5 5 6 6 11 9 11 9 3 2 6 6 7 5 6 8 9 7 5 3 4 4 5 6 5 5 4 3 3 4 6 6 5 7 8 8 13 15 16 17 16 16 14 14 14 15 14 15 15 15 14 14 14 14 13 13 13 13 14 14 14 15
8 9 10 10 10 10 14 18 15 13 12 5 4 6 7 10 11 9 7 6 6 7 6 7 6 7 8 8 10 8 5 6 8 4 4 4 6 5 5 3 3 3 3 3 3 4 4 4 2 4 6 8 12 13 16 13 17 17 16 16 14 15 15 15 14 14 14 14 13 13 12 12 13 13
8 8 10 11 17 18 17 16 15 15 14 11 8 6 5 5 5 5 6 6 5 5 5 6 5 7 9 8 10 8 3 3 2 2 3 2 2 2 3 4 2 3 4 3 4 3 3 4 5 5 4 5 9 9 9 9 11 14 18 17 17 17 16 16 15 15 15 14 13 13 13 13 13 13
9 9 9 9 13 14 14 12 15 15 15 15 14 11 8 5 3 5 7 8 6 7 7 5 6 6 6 7 4 2 3 3 3 1 1 1 3 2 1 4 3 2 3 2 2 5 3 3 6 4 5 7 7 7 8 13 15 16 15 16 17 17 16 16 15 14 13 12 12 12 12 12 12 13
9 9 9 9 8 9 10 11 8 10 12 13 15 13 10 9 9 9 6 5 6 6 6 6 6 7 6 3 2 2 2 1 2 3 2 2 2 3 4 3 3 1 2 1 2 6 3 4 6 6 6 6 6 8 8 8 15 16 16 15 15 15 15 14 13 12 12 12 12 12 12 12 12 12
9 8 8 9 8 8 15 11 8 6 6 9 13 15 13 10 9 8 8 7 6 6 7 6 6 6 4 4 2 1 3 5 5 4 3 2 3 4 5 5 4 2 2 1 2 5 5 3 5 6 6 6 6 7 9 11 12 15 16 17 17 16 15 14 14 13 12 12 11 11 11 11 11 11
10 9 9 8 9 8 9 8 8 6 5 5 6 7 7 6 7 8 8 7 7 5 5 7 8 5 4 3 2 4 4 5 3 3 4 2 3 3 4 4 5 3 2 3 2 5 6 4 5 6 5 5 5 5 8 11 12 14 16 17 16 16 15 13 12 12 12 11 11 11 10 10 10 9
10 10 10 10 9 9 9 8 9 7 7 6 6 6 7 7 6 7 6 6 3 3 4 6 7 5 3 2 2 1 2 5 6 4 2 1 1 3 5 6 6 6 5 6 3 5 5 2 4 5 5 4 3 3 8 10 8 10 13 14 14 15 14 12 12 11 12 11 11 10 9 8 8 7
9 9 9 9 9 9 8 8 10 10 8 6 6 7 7 6 3 4 6 8 6 8 5 4 5 5 2 1 1 2 3 2 1 0 1 1 2 4 5 6 5 5 2 1 2 4 6 2 4 5 5 5 5 7 5 7 8 8 8 8 9 11 11 12 11 9 7 6 6 7 7 8 7 6
8 8 9 9 8 8 7 8 8 10 10 4 5 6 7 7 5 3 4 4 5 6 7 9 9 8 4 4 4 3 3 2 2 1 3 3 2 4 5 5 5 3 3 3 1 0 4 3 3 5 5 3 4 5 5 5 5 4 4 7 11 12 11 10 9 8 6 5 5 6 7 7 6 5
8 10 17 14 8 6 5 6 8 11 10 5 5 5 7 6 6 5 6 5 6 6 3 5 8 8 4 10 5 2 4 5 3 2 3 3 2 2 2 4 4 4 4 5 4 0 1 5 6 4 6 7 3 3 5 3 4 3 6 7 6 5 7 8 7 5 5 5 5 4 2 1 0 3
9 9 10 15 9 5 4 4 4 8 8 5 6 5 5 5 4 6 8 6 4 3 2 3 2 3 1 2 2 1 3 5 3 3 4 3 3 4 3 3 4 4 2 6 5 2 3 4 2 2 4 3 4 2 3 4 3 3 4 5 7 10 10 8 5 6 5 3 3 2 1 1 3 3
9 8 8 10 7 5 5 5 7 7 8 5 5 5 5 5 5 7 7 8 6 4 3 4 4 3 2 3 2 3 4 4 3 3 3 1 1 3 4 4 2 3 1 0 6 3 1 1 1 1 2 3 3 4 6 4 3 7 7 7 7 5 4 2 2 4 1 2 1 4 5 3 5 3
8 8 7 6 7 5 7 5 4 3 5 6 5 5 5 4 4 7 5 7 11 5 4 3 3 2 2 3 4 4 3 2 1 1 1 1 2 2 3 3 3 3 1 2 4 3 3 2 3 1 4 3 3 4 2 4 3 6 5 5 4 5 4 2 0 1 1 1 3 4 2 3 5 3
7 7 6 6 7 5 4 5 5 6 6 9 2 3 2 3 4 4 4 5 5 3 3 4 5 5 6 5 4 5 5 5 4 3 2 2 2 2 1 2 2 2 3 4 3 3 3 2 1 4 2 3 3 4 4 3 5 5 4 4 5 5 5 3 2 4 4 5 4 2 3 2 0 2
8 7 7 6 11 7 4 3 6 7 8 8 4 5 5 6 8 8 5 3 4 3 5 7 7 8 7 7 6 5 5 4 5 4 2 1 0 1 2 2 2 4 5 5 4 3 2 2 2 2 3 3 3 4 3 4 4 5 5 5 4 5 6 4 5 5 4 4 4 7 7 8 11 9
7 7 8 8 10 6 3 2 5 6 5 4 7 6 5 7 6 4 4 3 3 7 8 7 7 7 6 6 5 5 5 5 5 5 4 2 2 6 8 9 9 7 8 7 7 6 4 3 3 3 2 2 3 3 4 3 3 6 5 2 4 5 6 6 6 5 5 4 4 5 5 6 6 6
7 9 11 13 11 6 1 3 4 4 2 4 5 5 6 6 3 3 5 7 7 7 7 7 5 5 5 5 4 5 5 5 5 5 4 4 2 8 10 8 8 8 7 7 7 7 6 6 5 5 4 2 2 1 3 2 4 5 6 5 4 5 8 7 6 6 6 5 6 5 6 5 6 6
11 11 10 11 11 10 8 6 6 6 7 12 13 14 12 7 7 7 6 7 7 6 6 7 7 5 4 4 3 2 2 4 6 5 4 4 6 6 7 8 9 8 8 7 7 7 7 7 6 5 4 6 6 5 4 3 5 5 6 6 5 2 7 6 6 6 6 5 6 6 5 6 6 6
6 7 6 5 7 7 9 8 9 9 8 8 8 7 7 7 7 7 7 7 7 5 5 4 4 2 1 1 3 4 5 6 6 6 6 6 7 7 5 7 6 7 7 7 8 8 7 7 7 8 7 5 6 6 5 5 6 5 5 5 6 6 5 5 5 5 5 4 4 5 5 5 5 6
5 3 3 3 1 2 3 4 3 4 4 5 4 5 5 5 4 5 7 6 5 5 3 3 2 2 0 1 2 3 5 5 5 5 7 7 7 6 4 7 6 4 4 4 5 7 8 8 8 8 8 6 6 5 5 7 6 5 5 5 5 5 5 5 5 5 5 2 4 5 5 5 5 5
4 4 4 4 3 1 1 1 1 1 2 3 2 2 2 2 2 3 2 3 2 1 2 2 3 1 1 1 2 2 3 4 3 3 7 7 7 5 6 7 5 4 5 5 4 4 4 5 7 8 8 8 8 7 5 6 6 5 5 5 4 4 4 4 4 5 5 4 3 3 4 4 5 5
4 7 7 7 7 6 5 6 6 6 5 5 6 6 7 6 5 3 2 3 3 3 1 1 1 2 2 2 3 3 3 2 3 3 5 5 5 6 6 6 5 4 4 4 4 4 3 1 1 2 5 7 6 6 5 5 5 4 4 3 3 4 4 4 4 4 4 3 2 3 3 3 4 5
8 7 8 8 8 9 8 8 8 7 7 7 8 8 7 6 6 6 6 6 3 3 3 3 6 7 5 3 3 3 4 4 3 2 3 5 4 6 5 5 4 4 4 3 2 1 0 0 1 0 0 1 2 3 4 3 3 3 2 3 2 3 3 3 2 3 4 5 4 3 2 2 3 3
9 8 8 8 7 7 8 8 8 8 7 7 7 6 7 7 7 7 6 6 7 6 5 4 3 3 5 6 6 8 8 5 3 4 4 5 5 5 5 5 4 4 4 3 1 1 1 2 1 1 2 4 5 7 7 3 2 1 2 2 2 1 1 1 1 1 1 3 3 2 2 2 2 1
9 8 8 8 8 7 7 7 8 8 8 7 7 7 7 7 7 7 7 6 6 6 6 7 6 4 4 3 4 4 4 5 5 5 4 3 4 4 5 3 4 3 3 3 2 3 2 3 3 3 4 4 6 6 2 1 1 2 1 0 0 1 1 1 1 0 1 0 0 1 1 1 2 1
8 8 8 8 7 7 8 7 6 7 7 7 6 6 7 7 7 7 6 6 6 6 7 6 7 7 6 6 5 4 4 5 5 5 4 4 3 4 5 4 2 3 3 2 2 2 0 2 3 4 3 4 4 2 1 2 1 1 2 1 1 1 2 2 1 1 1 2 1 2 2 2 2 2
8 8 8 8 8 7 6 7 7 6 6 6 7 6 5 5 6 6 7 7 6 6 6 7 6 6 7 6 6 7 6 4 4 5 4 3 4 4 3 3 3 2 2 2 2 3 2 1 2 1 1 0 2 3 4 3 2 3 1 2 2 2 1 1 3 1 2 2 2 3 3 2 2 3
7 6 7 7 7 8 8 6 6 7 7 5 5 5 6 5 5 6 6 6 6 7 6 6 6 6 6 5 5 5 5 8 7 3 3 5 5 3 3 3 3 2 2 2 2 1 2 2 2 1 3 3 2 2 2 0 1 1 2 3 5 2 1 1 0 1 1 2 2 3 3 2 3 2
6 7 7 7 7 7 8 8 7 6 7 8 6 5 6 7 6 5 7 7 5 5 6 7 6 4 5 6 6 4 5 4 4 6 6 3 4 6 6 2 2 2 2 3 2 2 0 5 4 5 3 2 2 2 2 1 4 4 4 3 1 1 3 3 1 0 1 2 3 2 1 2 2 2
6 6 6 6 7 7 7 7 8 7 6 6 7 8 5 6 7 10 6 6 6 5 4 5 5 6 5 4 6 7 5 6 5 5 4 6 7 5 6 7 6 4 2 1 0 0 1 4 5 4 3 4 4 2 4 2 2 1 5 4 3 2 1 3 6 5 2 0 1 1 1 3 1 2
5 5 6 5 6 7 6 7 7 7 7 6 7 7 7 6 5 7 7 7 5 6 6 4 5 5 6 6 4 4 5 5 6 6 5 5 5 6 6 7 8 8 6 5 3 2 2 4 4 4 4 4 6 4 1 4 2 1 4 5 4 4 2 2 1 4 7 4 1 2 1 1 1 0
5 6 5 5 5 6 6 6 6 6 7 6 6 6 7 7 6 6 7 7 8 5 5 6 5 5 5 6 7 6 3 4 5 7 6 5 4 5 7 7 7 7 8 8 8 6 6 1 3 1 0 1 2 2 3 2 4 3 2 4 5 4 5 4 2 2 4 3 3 6 7 2 2 2
4 4 4 5 5 5 5 5 5 5 6 6 6 6 6 7 7 7 7 7 8 9 6 5 5 5 6 5 5 7 6 5 5 6 6 6 6 4 5 5 7 8 8 8 8 8 8 7 4 1 2 2 3 4 2 3 3 4 4 2 6 7 5 5 5 5 4 4 4 4 7 2 3 2
Wind_Direction
87 175 197 227 220 214 216 235 245 207 166 163 161 173 174 173 194 252 269 271 280 263 270 277 257 301 325 317 318 307 282 268 220 241 245 221 219 219 203 200 200 203 203 201 206 209 215 221 229 237 242 243 243 242 237 231 229 230 231 231 229 228 229 230 228 226 223 221 221 223 225 227 228 231
125 185 214 224 239 229 227 237 213 194 190 193 201 200 196 182 197 225 251 267 269 286 296 295 292 310 328 323 297 283 277 250 242 242 247 253 53 149 201 207 217 221 213 211 211 212 214 219 223 227 234 240 242 240 238 236 233 231 230 230 229 228 229 229 227 225 224 223 222 222 224 226 228 229
202 205 202 203 220 219 208 217 231 240 227 232 223 220 209 214 219 230 227 244 237 254 275 273 275 303 297 301 303 307 297 296 296 286 279 298 284 252 199 213 218 215 216 215 214 214 216 216 215 214 225 229 239 241 239 237 233 230 229 228 228 228 229 226 223 222 222 222 223 223 224 224 226 228
208 231 236 229 225 217 93 8 258 239 235 228 226 225 227 225 223 204 192 232 263 258 259 267 270 276 283 290 305 296 299 295 277 270 256 239 239 224 235 207 209 213 217 218 219 220 221 218 213 219 222 225 229 235 238 237 236 234 230 228 228 228 228 226 223 220 219 220 221 223 224 225 225 227
256 249 248 249 250 80 74 272 265 259 261 251 240 240 231 228 221 204 192 230 259 268 250 250 260 263 283 278 279 284 281 279 285 284 248 206 194 221 233 245 224 221 221 221 222 223 223 223 224 222 224 226 230 235 236 236 236 236 235 232 230 228 227 225 224 222 220 219 220 222 223 224 226 227
243 241 235 239 245 155 182 219 243 248 239 242 242 224 221 220 237 230 210 229 241 260 263 252 251 266 250 261 247 250 261 279 289 285 273 246 226 224 237 242 252 224 224 228 227 227 225 224 225 224 224 229 231 232 233 238 239 238 237 236 233 230 227 225 224 223 221 220 220 221 222 223 225 226
246 248 258 267 269 216 191 213 224 233 239 236 240 229 214 217 224 244 244 238 239 238 246 246 246 240 243 245 246 244 247 252 261 278 273 264 258 241 244 264 266 271 254 231 231 229 227 225 224 222 223 226 230 232 233 234 237 239 239 237 235 232 229 227 225 224 224 223 222 222 223 224 224 225
340 312 299 272 254 251 235 231 243 243 240 238 239 247 247 241 232 230 235 239 232 235 244 243 252 256 252 243 242 241 252 266 269 265 272 261 249 242 245 245 250 246 252 243 229 225 224 223 220 221 222 224 228 232 232 232 233 235 239 239 238 234 232 229 227 225 225 225 225 223 223 224 225 225
286 271 256 265 272 275 282 277 268 260 255 254 258 262 251 242 239 241 233 224 200 214 222 249 248 256 259 261 258 256 266 271 269 263 264 259 247 251 252 262 261 276 279 262 232 228 226 222 220 221 221 222 225 229 230 229 231 232 233 236 237 237 234 231 227 226 225 226 226 225 225 225 225 225
285 280 277 279 300 303 284 278 279 280 283 276 269 263 264 268 292 286 291 304 221 196 303 270 271 268 267 313 294 275 275 273 270 264 254 261 260 259 263 253 251 244 266 260 211 225 228 223 221 220 222 223 226 229 230 232 233 233 232 232 231 232 234 233 231 228 226 225 226 226 226 226 226 226
321 310 305 288 258 238 235 247 252 251 249 242 250 255 269 294 291 289 299 292 284 271 202 229 251 280 274 233 253 264 260 254 246 253 281 274 264 258 254 263 264 264 268 273 275 257 206 209 217 225 225 224 225 227 229 233 236 237 237 236 235 233 230 231 231 231 231 230 229 229 229 229 228 227
310 307 301 298 295 292 286 276 283 292 269 252 259 296 283 288 279 274 266 257 267 286 272 268 276 267 279 292 280 268 257 277 278 243 233 257 271 263 264 260 276 275 275 285 289 283 268 229 221 222 222 227 228 229 233 237 239 239 238 235 233 232 231 229 228 230 231 232 232 233 233 235 236 236
296 294 297 296 292 296 304 310 313 313 312 282 248 241 224 227 238 243 246 248 230 224 243 265 271 285 282 280 278 265 250 216 249 258 248 239 237 247 255 272 267 273 272 262 251 268 293 300 265 198 220 233 231 236 233 234 234 237 238 237 235 233 232 230 227 226 226 228 231 233 235 236 238 240
304 304 300 299 304 307 308 308 308 316 323 330 316 294 294 290 271 260 260 256 255 256 245 236 213 217 248 234 238 250 257 323 300 318 345 330 354 350 314 287 275 300 292 280 287 294 281 265 268 263 250 230 215 227 220 218 225 226 226 230 230 230 230 228 226 224 223 223 223 226 228 231 233 236
297 297 301 300 301 305 307 310 315 311 309 319 323 330 325 309 285 279 272 262 257 253 258 255 250 253 247 246 260 312 47 89 58 348 329 304 288 274 295 282 296 322 356 19 346 284 288 305 285 275 265 264 259 226 221 218 221 228 224 224 229 231 231 231 230 226 223 222 222 222 225 227 229 231
309 308 301 297 302 305 307 310 313 320 339 332 315 310 301 297 289 270 256 272 285 283 279 274 264 268 267 283 289 63 82 59 359 300 242 250 284 293 272 260 263 232 44 77 293 280 283 274 269 270 268 270 266 263 264 223 216 223 227 229 231 232 234 236 234 230 225 222 221 221 222 224 226 229
316 314 313 311 307 307 313 315 319 331 330 318 311 303 301 295 288 269 264 257 259 273 269 265 268 255 274 284 276 168 177 169 190 210 224 246 245 249 256 255 263 252 123 57 267 279 284 292 288 276 262 255 256 265 250 239 213 219 223 228 229 229 228 227 227 226 226 226 227 227 226 227 228 230
318 319 317 313 309 316 324 327 328 328 316 319 314 318 313 312 312 323 316 294 273 269 266 269 269 271 273 286 12 45 1 301 264 207 234 222 257 272 282 315 307 302 224 240 255 274 275 268 279 273 276 278 290 277 274 260 221 211 222 225 226 226 223 222 222 223 225 226 228 228 227 227 230 234
317 316 312 312 320 329 325 342 353 353 347 342 334 325 325 313 323 325 324 310 293 291 268 268 271 300 352 65 106 104 123 228 260 292 342 1 301 280 286 282 265 266 230 235 214 258 274 268 272 279 283 292 313 329 343 345 310 257 232 218 216 218 217 216 216 218 221 224 226 228 228 230 233 234
319 315 317 320 319 324 321 12 4 354 337 340 336 333 329 324 334 298 306 322 271 254 285 329 343 325 326 73 190 213 212 215 205 257 208 260 262 268 273 274 284 266 258 172 141 261 272 300 297 311 316 346 333 325 322 329 343 333 309 275 228 210 209 210 213 221 235 250 254 245 236 235 238 245
315 315 312 314 319 324 354 21 12 347 345 327 350 337 328 328 339 319 290 281 65 54 22 346 317 279 215 181 193 213 232 288 350 296 278 264 260 272 274 282 282 293 346 330 113 209 293 328 317 310 321 326 298 292 297 295 288 247 260 14 22 24 26 29 34 35 25 4 342 332 325 320 320 299
312 312 315 318 330 349 26 15 16 357 352 340 347 357 335 334 331 20 353 356 336 343 25 317 293 299 12 330 329 289 267 253 236 240 259 296 321 269 238 277 311 325 356 12 331 241 334 11 36 351 302 289 236 248 272 304 29 48 91 132 136 104 66 52 59 59 51 34 2 333 324 36 265 259
313 309 313 315 329 11 23 17 14 8 1 349 340 338 333 310 335 17 341 350 328 0 13 261 282 324 63 228 220 295 357 20 318 262 277 311 311 303 311 317 313 300 77 9 336 13 328 4 6 24 330 301 302 298 20 23 40 56 78 83 82 81 93 82 48 38 25 34 28 9 28 121 171 258
315 308 312 315 342 23 4 7 26 15 2 351 327 315 305 342 13 347 332 329 340 349 351 350 360 353 329 312 348 21 36 35 21 337 301 333 352 294 297 293 282 273 285 113 6 20 297 150 297 34 263 297 310 347 337 339 13 45 16 36 55 39 69 69 117 91 29 347 85 108 112 177 208 259
306 319 338 326 24 30 1 10 3 357 321 317 319 15 28 32 324 326 325 313 318 320 328 19 351 7 2 1 15 5 34 337 311 230 265 171 183 237 284 300 317 303 62 78 24 352 327 330 297 222 238 229 266 298 327 327 19 77 69 51 46 12 359 8 91 51 314 26 63 78 112 206 209 256
336 333 336 329 349 27 346 325 304 298 302 303 323 40 318 296 298 312 300 279 283 322 330 345 26 20 19 24 17 32 28 10 345 352 12 30 22 352 290 284 311 311 337 12 348 294 300 275 342 328 310 310 308 314 317 322 52 29 55 64 43 11 349 353 41 51 37 18 38 60 72 91 321 271
342 347 348 330 342 358 1 327 321 314 307 314 28 345 338 318 302 290 266 298 315 309 357 36 46 33 21 30 27 23 18 0 2 346 339 317 91 252 295 355 351 12 21 359 4 8 308 325 346 346 341 334 308 313 319 354 16 12 37 44 49 33 14 22 40 50 42 30 23 43 100 71 30 8
347 352 350 336 328 343 351 285 261 276 297 333 320 325 314 299 293 279 287 273 8 42 49 45 38 32 22 18 16 9 354 6 1 346 335 11 63 71 66 54 47 34 27 17 4 1 12 12 6 353 327 354 351 351 333 7 61 38 12 25 75 43 18 16 22 26 22 5 28 39 26 26 17 1
349 347 351 3 9 26 39 332 280 273 325 325 331 330 330 360 8 53 57 51 54 51 49 52 48 39 31 21 10 359 358 1 358 345 360 333 45 93 86 67 58 41 31 23 19 10 12 6 4 345 312 285 283 38 38 7 51 43 13 6 11 44 22 14 18 21 6 3 40 30 36 37 20 2
337 345 356 13 18 29 29 34 48 55 58 59 55 56 52 45 43 46 51 59 62 67 63 63 59 49 28 13 360 10 13 27 21 7 355 1 44 57 74 65 48 43 38 33 29 26 28 25 14 339 345 34 39 48 19 12 59 44 31 29 330 64 30 7 13 20 2 27 43 31 33 40 31 17
329 330 345 13 26 45 32 42 60 66 60 60 56 55 52 56 60 60 60 60 69 69 70 65 76 88 101 307 21 39 37 49 38 28 31 43 53 65 64 74 62 47 37 32 34 31 34 30 29 28 39 36 54 44 31 48 66 45 37 30 38 45 0 5 9 20 5 36 57 48 38 35 26 27
288 262 280 325 333 19 48 48 45 49 61 60 56 59 55 63 68 77 82 84 80 81 92 111 114 110 250 70 61 52 49 46 51 53 63 60 54 47 56 65 57 52 52 42 36 34 40 42 40 42 48 34 38 31 46 46 44 34 38 31 42 40 24 13 15 10 356 16 53 57 47 42 24 16
280 222 226 220 244 273 3 1 349 347 37 52 56 75 107 137 116 102 78 80 95 178 143 145 155 146 168 105 71 75 62 59 65 52 72 67 75 63 58 67 57 38 39 33 36 37 44 48 53 59 57 51 43 31 38 61 42 33 34 21 30 34 20 15 19 13 358 19 45 65 64 53 30 9
28 40 35 33 38 44 46 42 46 47 53 62 64 53 47 40 38 48 92 137 170 204 231 294 192 186 198 154 157 138 115 123 80 71 76 75 80 80 67 71 63 59 58 50 39 29 40 79 86 79 73 65 53 47 39 59 65 47 40 24 22 38 23 11 10 12 13 15 4 50 56 54 49 23
29 38 47 44 40 34 30 31 35 44 45 44 44 41 34 35 36 32 25 18 36 76 95 65 44 35 39 26 27 118 153 138 130 121 124 118 81 74 72 69 61 49 46 43 45 52 289 61 194 164 84 93 70 56 59 49 91 42 55 44 19 20 21 13 15 11 20 19 10 27 36 56 58 35
26 25 30 38 43 45 42 32 28 28 36 38 40 43 42 35 28 24 24 13 22 20 22 33 47 62 56 52 39 36 34 45 72 119 130 96 88 86 80 76 72 60 51 52 6 255 217 248 185 236 69 45 48 49 30 22 82 350 42 44 360 6 342 356 352 357 45 43 13 13 26 336 340 349
25 23 19 25 29 28 42 47 39 28 25 31 36 31 31 30 22 19 16 11 23 20 18 18 15 28 53 65 78 71 67 58 49 32 48 98 132 126 107 93 81 79 77 61 28 6 13 24 22 39 79 65 57 63 31 283 321 254 331 258 216 265 294 267 262 312 318 226 69 22 290 259 277 260
27 22 24 17 17 26 28 28 44 48 36 27 26 35 36 26 17 11 6 22 23 25 14 22 22 14 21 28 31 58 83 68 57 51 35 28 52 87 99 103 115 136 132 149 145 130 175 62 39 23 53 97 104 111 126 282 301 285 147 201 260 240 241 268 259 261 243 214 185 191 203 244 236 207
28 25 20 18 12 10 22 28 21 33 50 44 33 26 33 37 24 11 15 15 16 24 22 18 20 20 19 24 33 22 23 49 74 66 52 36 36 50 62 94 103 77 93 125 160 159 154 125 136 151 37 75 169 193 189 178 231 227 226 198 251 260 233 272 305 224 228 245 221 175 196 171 119 102
27 29 22 18 15 11 9 8 31 24 18 30 45 36 22 24 33 25 14 11 15 17 20 16 16 20 17 17 30 37 25 24 19 42 77 60 21 29 75 74 67 80 75 62 63 65 131 133 147 167 161 182 191 244 243 342 350 196 203 230 212 247 270 247 244 339 286 290 285 215 221 154 241 180
30 26 26 20 15 13 13 6 9 26 23 9 12 28 37 19 15 31 22 12 12 23 25 13 7 16 32 20 9 20 26 20 38 22 11 25 54 38 14 18 97 96 85 43 0 339 238 158 160 170 154 113 189 162 62 229 233 219 205 193 212 212 320 292 267 218 248 285 302 323 328 270 202 166
22 30 22 28 20 9 14 15 5 6 25 20 10 6 17 37 22 8 20 19 15 11 36 27 13 4 8 36 27 9 15 16 10 30 28 17 9 15 28 11 3 5 16 91 196 269 254 142 158 159 208 202 193 198 264 341 357 160 175 154 166 181 193 346 360 346 320 264 320 330 332 330 349 74
25 28 29 22 28 12 10 13 12 4 1 21 18 9 7 11 33 22 7 1 10 25 11 24 25 13 3 2 18 44 22 15 14 5 21 16 26 14 19 23 11 350 340 340 294 315 245 169 193 176 194 228 222 202 270 288 233 205 157 170 171 175 192 237 251 11 326 337 5 271 227 192 151 157
22 27 28 24 28 20 12 10 13 10 360 10 21 20 13 4 10 25 13 3 356 9 29 3 11 16 12 13 4 4 36 34 26 6 2 9 25 39 36 20 5 1 351 356 343 339 338 266 210 152 80 246 254 226 234 305 324 304 258 149 153 179 185 185 156 261 267 276 287 308 295 284 274 192
6 26 31 20 29 24 17 10 12 18 10 8 17 22 23 11 6 11 14 2 359 354 3 25 10 18 4 10 14 7 353 36 36 22 6 6 2 32 57 37 21 6 358 354 349 341 333 326 333 57 197 241 329 338 281 193 226 277 280 228 159 182 192 174 184 213 225 217 224 223 273 222 126 131